Home   Weather   Jalandhar   Past weeks

Flag for India Past Weather in Jalandhar, Punjab, India — Yesterday and Last 2 Weeks

Now
91 °F

Clear.


Feels Like: 88 °F
Forecast: 73 / 100 °F
Wind: 3 mph from Southeast

Location: Amritsar Airport

Current Time: Apr 27, 2017 at 12:49:51 pm

Latest Report: Apr 27, 2017 at 12:00 pm


Visibility: 4 mi

Pressure: 29.80 "Hg

Humidity: 24%

Dew Point: 50 °F

Location of JalandharLocation

Past Weather in Jalandhar — Graph

°F

Jalandhar Temperature Yesterday

Maximum temperature yesterday: 97 °F (at 3:00 pm)
Minimum temperature yesterday: 66 °F (at 5:00 am)
Average temperature yesterday: 82 °F

High & Low Weather Summary for the Past Weeks

 TemperatureHumidityPressure
High109 °F (Apr 18, 4:30 pm)100% (Apr 22, 4:30 am)29.86 "Hg (Apr 22, 4:30 am)
Low59 °F (Apr 13, 5:30 am)8% (Apr 19, 1:00 pm)29.45 "Hg (Apr 20, 5:00 pm)
Average86 °F39%29.68 "Hg
* Reported Apr 12 11:30 am — Apr 27 11:30 am, Jalandhar, Weather by CustomWeather, © 2017

Note: Actual official high and low records may vary slightly from our data, if they occured in-between our weather recording intervals... More about our weather records

Advertising

Jalandhar Weather History for the Previous 24 Hours

Scroll right to see more
 ConditionsComfort  
Time TempWeatherWind HumidityBarometerVisibility
11:30 am
Thu, Apr 27
90 °FClear.5 mph26%29.83 "Hg4 mi
11:00 am90 °FClear.9 mph26%29.83 "Hg4 mi
10:00 am86 °FClear.10 mph31%29.83 "Hg4 mi
9:30 am84 °FClear.9 mph33%29.83 "Hg4 mi
9:00 am82 °FClear.9 mph37%29.80 "Hg4 mi
8:00 am77 °FPassing clouds.7 mph47%29.80 "Hg4 mi
7:00 am72 °FPassing clouds.7 mph57%29.80 "Hg4 mi
6:30 am70 °FScattered clouds.7 mph57%29.80 "Hg4 mi
6:00 am70 °FPassing clouds.6 mph57%29.77 "Hg4 mi
5:30 am72 °FPassing clouds.3 mph53%29.77 "Hg2 mi
5:00 am73 °FPassing clouds.7 mph50%29.74 "Hg2 mi
4:00 am73 °FThunderstorms. Passing clouds.8 mph50%29.74 "Hg2 mi
3:30 am73 °FThunderstorms. Passing clouds.2 mph50%29.74 "Hg2 mi
3:00 am75 °FThunderstorms. Partly cloudy.2 mph47%29.74 "Hg2 mi
1:30 am81 °FThunderstorms. Partly cloudy.8 mph28%29.74 "Hg2 mi
1:00 am86 °FThunderstorms. Partly cloudy.10 mph24%29.77 "Hg2 mi
12:00 am84 °FThunderstorms. Passing clouds.16 mph25%29.77 "Hg2 mi
11:30 pm
Wed, Apr 26
82 °FPassing clouds.7 mph28%29.77 "Hg3 mi
11:00 pm82 °FPassing clouds.13 mph28%29.77 "Hg3 mi
10:30 pm82 °FPassing clouds.9 mph28%29.77 "Hg3 mi
10:00 pm82 °FPassing clouds.12 mph28%29.77 "Hg3 mi
9:00 pm82 °FPassing clouds.16 mph30%29.77 "Hg3 mi
8:30 pm88 °FHaze.8 mph25%29.74 "Hg3 mi
8:00 pm86 °FHaze.3 mph29%29.71 "Hg3 mi
7:30 pm88 °FHaze.6 mph27%29.71 "Hg3 mi
7:00 pm91 °FScattered clouds.2 mph23%29.68 "Hg3 mi
6:30 pm93 °FScattered clouds.2 mph21%29.68 "Hg4 mi
5:30 pm95 °FScattered clouds.9 mph19%29.68 "Hg4 mi
5:00 pm95 °FScattered clouds.7 mph18%29.68 "Hg4 mi
4:30 pm95 °FScattered clouds.6 mph18%29.68 "Hg4 mi
4:00 pm97 °FScattered clouds.No wind17%29.68 "Hg4 mi
3:00 pm97 °FScattered clouds.3 mph16%29.68 "Hg4 mi
2:30 pm95 °FScattered clouds.2 mph19%29.71 "Hg4 mi
2:00 pm95 °FScattered clouds.9 mph18%29.71 "Hg4 mi
1:30 pm93 °FScattered clouds.5 mph20%29.71 "Hg4 mi
1:00 pm93 °FScattered clouds.6 mph20%29.74 "Hg4 mi
12:30 pm93 °FScattered clouds.5 mph20%29.74 "Hg4 mi
12:00 pm91 °FScattered clouds.2 mph23%29.74 "Hg4 mi
Weather by CustomWeather, © 2017

See weather overviewHow to use our weather pages